TimeHST,TemperatureF,Dew PointF,Humidity,Sea Level PressureIn,VisibilityMPH,Wind Direction,Wind SpeedMPH,Gust SpeedMPH,PrecipitationIn,Events,Conditions,WindDirDegrees,DateUTC
12:53 AM,69.1,62.1,78,30.14,10.0,Variable,3.5,-,0.00,,Overcast,0,2013-02-05 10:53:00
1:53 AM,70.0,60.1,71,30.12,10.0,ENE,3.5,-,N/A,,Overcast,70,2013-02-05 11:53:00
2:53 AM,66.9,60.1,79,30.10,10.0,Calm,Calm,-,N/A,,Clear,0,2013-02-05 12:53:00
3:14 AM,66.2,60.8,83,30.08,10.0,NE,3.5,-,N/A,,Partly Cloudy,50,2013-02-05 13:14:00
3:53 AM,64.9,59.0,81,30.09,10.0,Calm,Calm,-,N/A,,Clear,0,2013-02-05 13:53:00
4:53 AM,66.0,57.9,75,30.09,10.0,Calm,Calm,-,N/A,,Scattered Clouds,0,2013-02-05 14:53:00
5:53 AM,66.9,61.0,81,30.10,10.0,Calm,Calm,-,0.00,,Mostly Cloudy,0,2013-02-05 15:53:00
6:53 AM,66.9,60.1,79,30.11,10.0,Variable,3.5,-,N/A,,Mostly Cloudy,0,2013-02-05 16:53:00
7:53 AM,70.0,59.0,68,30.12,10.0,ENE,3.5,-,N/A,,Mostly Cloudy,70,2013-02-05 17:53:00
8:53 AM,73.9,57.0,55,30.12,10.0,ENE,8.1,-,N/A,,Clear,70,2013-02-05 18:53:00
9:01 AM,73.4,57.2,57,30.10,10.0,East,8.1,17.3,N/A,,Partly Cloudy,80,2013-02-05 19:01:00
9:53 AM,75.9,55.9,50,30.13,10.0,East,10.4,24.2,N/A,,Clear,90,2013-02-05 19:53:00
10:53 AM,79.0,57.9,48,30.13,10.0,Variable,6.9,-,N/A,,Scattered Clouds,0,2013-02-05 20:53:00
11:53 AM,78.1,57.0,48,30.11,10.0,East,9.2,-,N/A,,Scattered Clouds,80,2013-02-05 21:53:00
12:53 PM,77.0,55.9,48,30.09,10.0,ENE,8.1,-,N/A,,Mostly Cloudy,70,2013-02-05 22:53:00
1:53 PM,77.0,57.0,50,30.07,10.0,NE,9.2,18.4,N/A,,Overcast,50,2013-02-05 23:53:00
2:53 PM,77.0,57.0,50,30.06,10.0,ENE,8.1,-,N/A,,Mostly Cloudy,60,2013-02-06 00:53:00
3:53 PM,79.0,57.0,47,30.05,10.0,ENE,9.2,-,N/A,,Partly Cloudy,70,2013-02-06 01:53:00
4:53 PM,75.9,57.9,54,30.07,10.0,NE,9.2,-,N/A,,Partly Cloudy,50,2013-02-06 02:53:00
5:53 PM,73.0,60.1,64,30.08,10.0,Variable,5.8,-,N/A,,Clear,0,2013-02-06 03:53:00
6:53 PM,71.1,59.0,66,30.10,10.0,Variable,3.5,-,0.00,,Mostly Cloudy,0,2013-02-06 04:53:00
7:53 PM,70.0,60.1,71,30.12,10.0,Variable,3.5,-,0.00,,Mostly Cloudy,0,2013-02-06 05:53:00
8:53 PM,68.0,61.0,78,30.13,10.0,Variable,4.6,-,N/A,,Clear,0,2013-02-06 06:53:00
9:53 PM,66.9,61.0,81,30.13,10.0,Variable,3.5,-,N/A,,Partly Cloudy,0,2013-02-06 07:53:00
10:13 PM,66.2,60.8,83,30.10,10.0,Variable,3.5,-,N/A,,Partly Cloudy,0,2013-02-06 08:13:00
10:53 PM,66.9,60.1,79,30.12,10.0,Variable,5.8,-,N/A,,Clear,0,2013-02-06 08:53:00
11:05 PM,66.2,60.8,83,30.10,10.0,Variable,4.6,-,N/A,,Partly Cloudy,0,2013-02-06 09:05:00
11:53 PM,68.0,60.1,76,30.12,10.0,Variable,5.8,-,N/A,,Clear,0,2013-02-06 09:53:00